Theta_e
328 331 332 337 341 340 340 342 343 343 343 350 350 351 352 352 351 357 352 348 345 346 352 341 332 339 340 338 335 334 334 335 335 335 335 335 336 335 336 337 338 338 338 338 339 341 343 343 343
329 329 333 335 338 340 340 342 340 344 344 347 350 347 350 357 351 351 351 345 345 347 351 346 332 335 339 339 338 336 336 335 335 335 334 334 333 334 334 335 336 335 335 334 334 334 333 333 333
328 328 333 330 336 341 339 342 341 344 343 348 349 348 349 352 350 349 348 346 345 346 349 353 337 334 336 339 339 339 338 337 336 334 334 334 334 334 334 335 336 336 336 336 336 335 335 335 336
331 330 329 331 339 340 339 342 341 343 344 344 344 347 347 350 351 346 346 345 345 347 349 348 338 336 334 335 338 340 340 340 339 338 337 336 334 334 335 336 337 337 336 340 341 340 338 338 338
325 329 331 335 339 341 342 342 340 339 343 344 342 348 348 349 347 344 345 347 348 349 349 349 339 335 334 334 333 335 337 340 342 341 339 338 337 337 335 335 337 337 336 339 343 344 342 341 340
330 328 335 338 339 342 342 341 338 337 339 342 344 345 347 348 349 349 347 349 349 348 349 350 345 343 341 336 334 334 332 332 333 334 334 334 333 334 335 336 336 335 334 334 335 335 336 336 336
329 329 333 337 340 341 342 340 338 336 337 340 342 345 347 347 350 351 350 347 344 343 344 347 349 349 345 343 340 336 336 337 338 340 341 341 339 337 336 335 335 334 333 333 334 334 336 336 336
327 328 332 335 338 339 342 339 337 335 337 338 341 341 348 349 350 350 346 342 339 340 340 340 340 342 345 347 341 342 342 341 341 341 342 342 341 341 339 338 339 341 337 335 335 337 338 338 336
325 329 331 332 336 337 341 340 338 338 337 338 339 341 347 349 350 347 345 342 340 342 343 345 346 342 342 343 343 339 335 332 334 339 340 337 342 343 343 342 340 335 333 331 335 340 342 343 343
326 329 329 330 332 335 340 339 338 338 337 338 342 347 349 349 349 346 345 344 343 342 342 344 346 346 345 340 342 343 344 344 344 345 348 348 344 343 340 336 336 339 342 343 342 345 346 345 346
326 327 326 328 332 335 338 338 337 336 335 333 338 347 349 348 345 341 342 343 340 341 343 345 344 343 342 340 339 337 338 340 341 345 346 345 346 347 346 346 344 340 338 338 341 345 347 347 344
325 325 325 329 332 336 337 337 338 336 335 334 335 344 347 349 345 340 339 339 340 341 340 342 343 341 339 333 329 329 329 331 330 334 341 341 339 340 339 337 336 335 335 336 336 339 343 346 346
325 324 326 329 333 336 336 338 337 337 341 340 342 345 347 347 344 340 339 339 341 341 341 337 335 335 335 334 331 331 331 327 330 330 333 333 332 333 332 332 331 330 331 332 332 334 337 341 341
323 325 328 332 335 335 337 338 339 339 342 345 346 346 347 346 343 340 340 344 343 337 332 332 332 335 332 335 335 333 332 330 328 329 331 331 331 332 330 329 329 329 330 329 329 329 331 331 332
324 325 328 331 335 337 337 338 338 340 342 347 347 347 347 344 342 339 337 333 328 329 332 334 333 333 333 333 332 331 329 328 328 327 330 332 331 330 331 325 326 329 329 329 328 329 328 328 328
325 325 326 327 330 333 334 330 333 340 342 346 348 349 347 344 341 338 332 328 330 328 333 333 330 330 332 333 331 330 329 328 328 326 326 328 325 325 323 321 322 322 324 325 327 328 327 328 328
326 325 325 325 325 326 330 329 333 339 342 344 348 348 346 344 341 334 330 330 329 331 332 332 332 330 330 331 331 330 330 328 326 327 323 325 324 324 325 319 321 324 320 321 323 325 327 327 327
327 326 326 326 324 324 325 327 327 334 339 342 346 347 345 343 340 330 330 331 331 331 332 331 329 331 332 329 328 326 325 325 326 324 323 324 323 323 323 320 321 325 319 318 320 324 324 325 323
326 326 326 326 324 326 326 326 326 329 337 340 344 346 344 341 330 328 330 331 331 331 332 331 330 330 331 328 326 324 323 322 322 322 323 324 323 322 323 322 322 322 322 320 320 319 317 317 320
327 327 327 326 325 326 328 326 330 331 337 339 342 344 342 336 329 330 330 330 331 331 332 331 331 332 333 330 328 327 326 324 323 322 323 324 323 322 321 321 322 322 322 321 321 321 318 315 314
327 327 327 327 327 327 325 324 330 333 335 338 340 340 338 334 331 331 329 330 331 331 331 331 332 333 334 333 330 328 327 326 324 321 321 320 319 317 317 318 318 320 322 320 320 319 318 317 314
327 326 326 327 327 326 323 322 327 329 334 336 337 339 338 337 335 332 331 331 331 331 331 331 329 327 325 326 324 323 322 320 319 316 315 316 315 315 315 315 315 316 316 317 320 320 320 319 317
327 325 325 324 325 324 324 324 329 328 330 331 334 336 336 335 334 332 331 329 325 324 323 321 321 322 321 320 319 317 316 316 315 314 314 314 313 313 313 313 314 314 315 315 315 317 321 319 317
325 325 325 324 323 326 326 324 327 327 330 331 331 333 335 335 333 331 326 323 321 319 319 319 319 319 319 317 317 316 316 315 314 314 313 312 311 311 312 312 313 313 314 314 314 315 316 320 318
327 326 326 326 324 324 324 324 327 327 328 330 331 332 333 334 332 326 323 321 319 318 317 317 316 317 316 316 316 315 314 314 313 312 311 311 311 311 311 311 310 310 310 311 312 313 315 316 319
326 325 326 326 326 324 325 326 329 326 327 327 328 331 332 329 325 323 320 318 317 317 316 316 316 316 315 315 314 313 313 312 311 311 311 311 311 311 310 310 309 309 309 309 309 312 314 316 318
326 327 324 327 327 327 325 325 326 326 326 326 327 327 327 325 322 320 318 318 317 317 316 316 315 315 313 312 312 312 312 311 311 310 311 311 311 310 310 310 309 309 308 308 308 309 313 315 318
324 323 327 328 331 327 324 325 325 325 326 326 326 326 325 322 320 319 318 317 316 316 315 314 314 312 312 312 312 311 310 310 310 310 311 311 309 309 309 309 309 308 309 308 306 309 310 313 317
325 325 325 326 326 327 326 325 325 325 325 325 326 325 323 321 320 319 318 317 316 315 315 313 312 312 312 312 311 310 309 308 309 309 310 309 309 309 308 307 306 306 308 308 307 308 309 311 313
326 326 326 327 329 327 327 328 325 325 324 324 325 323 321 320 320 318 317 316 315 315 313 312 312 312 312 311 311 310 309 308 309 309 310 309 309 307 306 305 305 305 307 308 308 308 309 308 311
Wind_Speed
2 3 4 7 6 6 12 9 5 8 6 9 8 11 13 11 9 6 6 6 9 9 10 10 12 12 12 13 13 13 13 11 11 10 9 8 7 8 7 8 7 7 6 6 5 5 4 3 3
3 3 6 5 4 10 9 5 9 10 10 5 3 4 11 14 12 9 8 8 7 7 8 9 10 11 11 11 11 11 11 10 8 7 7 7 6 5 5 5 5 4 4 3 2 2 1 1 1
4 4 5 3 4 10 10 6 9 8 6 4 4 7 4 7 11 7 10 8 8 6 7 7 9 8 9 9 9 8 8 8 8 7 5 4 3 3 3 2 2 2 1 1 1 1 2 2 3
4 7 5 6 14 7 9 9 7 8 6 4 4 9 8 8 4 7 9 8 8 8 8 8 10 8 6 6 5 4 4 4 3 4 4 3 3 3 3 2 3 3 3 3 3 4 4 4 5
6 4 3 8 10 8 7 9 4 6 5 6 3 8 11 10 10 10 9 8 9 8 8 8 8 8 8 8 8 7 5 3 3 3 4 4 4 4 5 5 5 6 6 6 7 7 7 7 7
6 4 6 10 11 7 9 8 5 9 8 7 12 13 10 9 9 9 8 9 8 9 8 8 6 7 7 6 6 6 5 5 5 6 7 7 7 8 8 8 9 9 9 9 10 10 10 10 10
6 4 6 9 11 9 10 6 5 8 9 10 5 10 8 10 9 9 9 9 9 8 7 6 5 4 5 5 5 5 6 5 5 6 7 9 9 10 10 10 11 11 11 11 12 12 13 12 11
5 3 8 4 9 10 10 6 6 6 8 7 4 7 11 14 11 11 11 10 10 9 7 5 5 5 5 2 2 2 3 4 6 8 9 10 11 10 12 12 12 12 13 14 14 13 13 14 13
5 6 6 7 6 9 13 10 3 3 8 3 4 3 12 14 12 10 10 10 9 8 6 6 5 5 4 3 1 4 5 5 6 7 8 8 7 9 10 11 15 16 15 15 15 16 16 16 16
9 4 5 2 4 11 16 10 13 9 8 7 7 8 14 14 12 9 8 6 5 6 6 5 5 5 4 3 3 2 2 3 4 5 6 8 8 9 11 11 13 12 12 14 12 13 14 16 14
2 4 4 4 4 10 15 11 11 10 11 12 15 15 14 13 10 7 6 6 6 7 7 6 6 4 3 4 4 5 5 5 5 6 6 7 7 8 9 9 8 7 8 8 9 10 9 12 11
8 2 1 4 5 10 14 11 11 9 4 9 11 14 14 12 10 6 4 5 5 6 6 7 6 5 5 6 7 7 8 8 8 8 8 8 7 7 8 9 9 9 8 9 9 10 9 9 11
3 5 3 3 9 10 10 11 12 9 2 5 10 12 12 10 8 5 4 5 5 5 6 5 6 5 5 7 7 7 7 9 8 9 8 8 9 9 10 12 12 12 11 11 12 10 9 10 9
2 5 7 5 9 7 12 6 7 8 5 9 11 12 10 9 8 7 6 7 6 5 6 6 5 5 5 5 5 5 6 7 8 8 8 8 8 9 10 11 12 12 12 12 12 11 10 10 9
5 7 8 5 7 5 9 8 13 7 8 13 12 10 8 8 8 7 8 7 7 6 6 5 5 4 4 4 4 5 6 6 7 7 7 8 8 9 9 12 12 11 11 12 12 11 11 11 11
5 7 10 8 7 6 8 15 13 9 11 14 14 11 10 8 10 9 9 7 6 6 4 4 4 4 5 6 6 7 8 8 8 8 9 8 9 10 11 14 12 11 11 11 12 11 13 11 12
7 3 3 5 4 2 10 17 14 8 11 14 14 13 11 11 11 12 10 5 3 2 2 3 4 5 7 8 8 10 11 11 12 11 11 8 8 11 13 14 15 11 13 13 13 12 11 11 10
4 2 3 2 4 6 12 16 11 7 12 14 14 13 13 12 13 16 9 4 2 2 4 5 7 8 9 11 12 13 14 15 14 13 12 11 13 11 14 15 15 14 16 15 14 14 15 11 9
2 1 4 0 3 7 6 9 11 7 12 14 14 13 13 13 14 14 9 5 4 6 7 8 11 11 12 14 15 17 18 17 17 15 14 14 12 11 11 17 16 17 18 16 14 14 16 17 14
3 5 1 4 3 9 9 11 6 6 11 13 12 13 14 13 13 12 10 8 9 10 10 11 12 13 13 15 15 15 17 19 20 19 15 14 13 15 15 16 17 19 18 19 16 14 16 20 18
2 8 6 9 11 14 9 15 7 3 7 7 9 11 13 13 13 11 11 10 11 11 13 14 14 15 15 15 17 19 20 22 21 21 19 18 18 18 18 17 17 18 20 24 21 19 17 19 21
6 6 8 11 12 10 6 6 5 2 6 10 12 13 13 13 11 11 10 10 11 13 13 13 12 12 12 10 13 11 14 16 16 19 20 20 21 23 22 21 21 20 21 23 23 24 23 19 18
7 7 9 10 12 7 5 8 8 1 3 7 11 14 14 13 12 11 10 9 11 8 7 7 8 7 8 9 10 13 15 18 20 22 25 25 29 27 27 26 24 22 22 24 24 23 24 25 21
5 9 10 6 4 7 5 5 6 5 6 5 1 9 11 12 12 7 5 6 5 5 7 7 8 9 9 12 14 15 18 20 23 27 28 30 28 26 23 22 23 23 22 23 23 25 25 25 26
8 10 5 4 2 4 2 8 7 5 3 4 1 5 9 10 7 4 7 6 5 7 8 10 11 13 13 16 19 20 22 23 26 25 25 22 24 25 23 21 21 22 23 23 23 24 25 27 28
5 7 5 5 6 10 5 2 5 3 1 2 4 4 5 3 5 5 4 5 8 9 12 13 14 16 18 22 24 24 24 25 24 22 23 24 22 22 21 21 21 20 20 21 23 25 23 23 25
4 4 4 6 6 7 2 3 8 4 5 4 2 3 5 5 4 4 3 6 9 12 13 14 16 20 23 26 26 25 25 24 24 23 22 21 21 22 21 21 22 21 20 20 20 22 21 19 19
5 2 4 4 4 8 4 4 2 2 3 5 6 7 5 4 4 4 6 8 11 12 14 16 19 23 26 27 25 25 27 26 24 23 21 21 22 21 21 20 20 21 20 21 20 20 20 16 15
3 5 2 4 5 5 8 4 6 5 6 9 8 5 5 5 5 5 8 10 11 14 17 20 22 25 26 25 24 24 25 25 23 21 21 22 22 21 22 22 24 20 20 19 16 17 17 15 13
5 6 5 4 3 4 7 9 5 4 7 6 4 3 3 5 6 8 9 11 13 16 19 21 23 24 24 24 23 24 23 21 20 21 21 21 22 27 27 27 24 23 20 17 14 14 13 12 8
Wind_Direction
311 241 248 242 222 81 75 83 46 64 99 56 49 42 65 39 13 77 105 76 118 135 149 156 160 159 152 148 148 146 143 140 135 129 123 117 113 113 111 106 99 100 95 93 94 96 92 82 67
238 240 242 277 252 98 75 86 87 65 82 89 56 103 53 76 53 94 108 101 102 125 146 157 164 165 161 152 150 148 147 145 141 136 133 133 133 131 126 122 120 119 115 110 109 106 111 63 354
211 247 279 324 340 63 92 102 79 87 89 47 116 43 32 68 55 74 90 100 101 116 130 157 160 160 167 163 156 150 150 149 151 150 156 159 159 156 150 148 146 153 172 194 215 260 285 292 299
254 203 212 239 93 79 81 85 93 118 102 58 32 74 102 47 55 78 95 95 99 99 118 149 152 152 148 157 160 163 163 171 178 180 182 196 203 219 218 216 213 226 234 246 257 269 275 284 291
248 252 123 103 94 111 95 96 101 78 87 75 30 117 87 76 92 99 98 92 93 91 104 122 136 148 161 167 170 175 177 208 249 258 262 253 255 254 255 252 258 259 265 266 267 272 274 273 275
238 282 170 125 107 120 105 126 104 67 72 91 101 104 84 107 104 94 97 90 90 96 101 107 124 152 168 175 186 195 204 217 227 240 245 252 251 253 255 260 259 263 268 275 277 276 273 276 277
316 298 67 115 120 144 131 138 106 84 89 69 125 112 114 138 111 103 99 96 93 96 97 108 127 154 162 168 186 198 212 218 235 247 256 262 265 268 269 268 267 266 269 271 275 277 278 273 272
305 267 162 143 164 123 136 136 126 92 75 99 226 124 143 121 132 115 107 105 99 99 98 104 128 147 150 137 199 231 256 252 255 264 264 266 273 278 278 281 285 278 276 275 272 270 272 274 274
284 244 132 140 181 139 156 152 129 115 133 148 119 70 101 130 133 122 117 117 105 99 94 85 106 110 110 98 48 19 346 332 317 308 293 288 280 272 275 272 269 273 280 280 277 276 272 272 274
262 264 85 98 120 159 173 170 160 170 152 150 154 120 134 141 146 138 143 117 92 79 74 77 84 93 91 68 58 25 324 306 309 302 285 284 273 267 260 270 284 289 292 288 292 291 283 263 266
173 15 96 134 194 162 174 191 169 191 178 161 170 160 155 150 150 133 121 104 92 85 73 82 89 87 69 46 25 10 1 351 343 337 323 306 295 289 285 280 280 278 287 287 292 289 282 268 274
247 181 351 127 188 178 176 183 189 204 130 158 157 155 157 163 160 138 115 112 108 101 94 87 81 68 53 43 34 35 35 28 19 7 6 353 344 327 319 309 303 299 290 287 289 283 274 267 265
223 135 109 151 189 186 176 186 192 198 67 173 131 162 165 164 153 142 121 110 126 119 111 98 90 82 64 50 44 42 32 21 9 2 355 352 344 337 333 328 322 315 311 304 297 282 275 271 264
85 127 130 155 159 180 199 179 197 148 180 160 168 177 170 165 168 152 152 139 142 130 123 107 92 87 66 60 44 24 4 359 355 351 346 347 341 331 332 328 324 320 318 311 305 301 290 277 262
140 156 154 157 173 170 244 204 223 119 185 176 186 179 172 180 173 176 151 136 135 128 117 95 77 59 36 23 14 356 342 338 340 342 340 342 336 333 335 329 322 319 318 314 309 304 295 284 275
197 205 206 139 204 143 231 260 162 167 187 194 192 186 190 180 185 163 152 132 122 109 88 60 45 16 359 352 338 330 324 321 314 320 328 331 333 330 327 326 321 321 316 311 306 305 301 294 297
183 278 256 145 211 261 234 259 119 177 197 198 195 195 192 176 180 164 156 148 136 98 40 11 346 336 334 329 324 314 305 305 304 304 311 321 322 320 314 320 314 314 314 309 307 297 302 296 295
67 173 157 187 132 233 250 246 264 190 220 210 199 197 191 186 183 170 178 176 216 282 316 315 306 307 312 314 309 301 296 294 295 297 301 307 309 311 310 310 301 293 299 301 301 300 292 298 306
47 292 294 221 130 292 265 291 286 207 224 211 202 197 194 191 175 179 202 224 259 278 291 299 300 304 309 302 300 294 292 297 290 292 298 302 306 313 313 305 299 292 289 294 291 286 292 288 272
324 298 37 191 185 294 300 287 297 239 225 224 208 201 199 192 181 193 219 241 263 276 285 291 296 299 300 297 293 291 292 290 291 291 289 301 314 317 312 302 298 292 287 288 280 279 284 287 292
52 333 337 320 319 273 289 273 197 194 233 221 229 221 213 201 202 211 232 255 272 282 285 287 293 298 298 299 296 292 288 284 282 295 305 304 310 312 310 306 300 291 282 278 271 271 271 279 286
305 2 303 298 303 306 1 306 139 127 218 218 221 222 221 213 223 239 254 265 274 283 289 293 299 310 311 313 315 321 307 308 314 300 302 304 305 306 301 298 296 290 287 285 278 266 261 266 274
12 317 311 301 283 302 151 274 108 50 265 234 227 225 225 227 225 236 260 311 293 301 296 304 316 327 339 340 335 323 314 310 308 305 303 301 297 295 293 292 291 287 283 281 279 274 268 259 252
318 282 253 272 259 232 78 333 103 26 0 353 272 223 228 225 228 248 283 264 289 303 307 312 319 322 327 326 320 318 315 313 310 307 303 301 302 300 296 296 294 291 288 282 279 273 266 259 253
315 334 309 246 251 333 75 292 35 33 15 343 24 206 212 217 236 242 249 286 318 316 319 311 308 308 310 312 314 313 309 308 304 305 303 304 300 300 300 299 297 294 290 288 286 281 272 260 243
348 329 333 314 328 328 128 247 70 44 50 313 279 258 206 194 225 241 281 312 315 314 307 307 304 304 310 311 311 308 306 306 303 302 303 296 298 297 300 297 296 294 293 290 283 275 276 265 251
38 299 10 286 241 262 66 182 196 198 219 236 233 222 207 212 220 246 289 299 309 307 307 308 308 307 311 310 309 307 306 303 301 300 296 292 294 293 294 293 290 290 287 288 287 278 272 267 253
296 87 240 185 297 313 333 274 355 348 268 223 241 236 213 216 232 271 302 307 306 307 307 306 310 312 312 312 310 311 309 304 300 299 293 292 293 292 292 289 288 285 285 284 282 275 267 266 248
200 213 221 301 294 298 305 21 48 6 0 326 301 234 235 245 267 283 310 309 307 309 315 317 317 315 314 313 312 312 311 309 301 297 295 293 290 290 290 285 287 280 278 278 277 280 264 270 251
281 302 290 284 231 250 289 294 76 30 352 330 310 199 229 275 308 309 308 311 309 319 320 321 319 316 316 314 312 312 311 308 302 297 298 295 291 295 292 291 288 281 274 273 270 272 266 253 253